DLH35N LFRS-EDDF

Flight info

Callsign DLH35N
Flight time 1h 16m
Altitude 34000
Route ANG4P ANG UL976 OBATO UM163 TSU UN858 OQQAL DCT RANUX/N0441F330 DCT VALEK DCT LUTAX UM163 DIK T856 NIVNU/N0397F230 T847 IMCOM IMCOM1A
Aircraft A320/M-SDE2E3FGIJ1LORWXYZ/HB1

Departure

Time 2026-05-07 18:22
Airport Nantes Atlantique Airport (LFRS)

Arrival

Time 2026-05-07 19:38
Airport Frankfurt Main Airport (EDDF)
Time Latitude Longitude Altitude Speed Heading
2026-05-07 17:44 47.15690 -1.60210 99 ft 0 kts 36°
2026-05-07 18:13 47.15674 -1.60226 98 ft 4 kts 34°
2026-05-07 18:13 47.15652 -1.60247 99 ft 4 kts 28°
2026-05-07 18:13 47.15627 -1.60263 99 ft 4 kts
2026-05-07 18:13 47.15607 -1.60260 98 ft 2 kts 299°
2026-05-07 18:14 47.15606 -1.60258 97 ft 0 kts 297°
2026-05-07 18:16 47.15623 -1.60298 99 ft 7 kts 311°
2026-05-07 18:16 47.15656 -1.60341 100 ft 7 kts 318°
2026-05-07 18:16 47.15701 -1.60399 99 ft 9 kts 319°
2026-05-07 18:17 47.15725 -1.60469 98 ft 9 kts 272°
2026-05-07 18:17 47.15676 -1.60533 99 ft 13 kts 207°
2026-05-07 18:17 47.15611 -1.60582 101 ft 17 kts 207°
2026-05-07 18:17 47.15453 -1.60703 95 ft 22 kts 208°
2026-05-07 18:18 47.15361 -1.60773 97 ft 23 kts 207°
2026-05-07 18:18 47.15217 -1.60882 99 ft 24 kts 207°
2026-05-07 18:18 47.15065 -1.60998 98 ft 26 kts 207°
2026-05-07 18:18 47.14899 -1.61125 97 ft 27 kts 207°
2026-05-07 18:19 47.14725 -1.61257 97 ft 29 kts 207°
2026-05-07 18:19 47.14554 -1.61387 91 ft 24 kts 207°
2026-05-07 18:19 47.14399 -1.61505 89 ft 27 kts 207°
2026-05-07 18:19 47.14263 -1.61609 86 ft 20 kts 207°
2026-05-07 18:20 47.14172 -1.61686 81 ft 13 kts 233°
2026-05-07 18:20 47.14141 -1.61816 82 ft 12 kts 250°
2026-05-07 18:20 47.14157 -1.61921 85 ft 7 kts 298°
2026-05-07 18:20 47.14180 -1.61937 86 ft 3 kts
2026-05-07 18:21 47.14191 -1.61929 81 ft 0 kts 25°
2026-05-07 18:21 47.14254 -1.61882 84 ft 39 kts 27°
2026-05-07 18:21 47.14725 -1.61524 98 ft 110 kts 27°
2026-05-07 18:21 47.15581 -1.60871 103 ft 164 kts 27°
2026-05-07 18:22 47.16571 -1.60027 790 ft 164 kts 42°
2026-05-07 18:22 47.16966 -1.59102 1278 ft 164 kts 79°
2026-05-07 18:22 47.16610 -1.56874 1969 ft 186 kts 124°
2026-05-07 18:22 47.15908 -1.55099 2314 ft 215 kts 108°
2026-05-07 18:23 47.15648 -1.52824 2866 ft 238 kts 98°
2026-05-07 18:23 47.15451 -1.50311 3571 ft 253 kts 97°
2026-05-07 18:23 47.15256 -1.47724 4569 ft 258 kts 97°
2026-05-07 18:23 47.15060 -1.45092 5558 ft 261 kts 97°
2026-05-07 18:24 47.14851 -1.42404 6470 ft 268 kts 98°
2026-05-07 18:24 47.14623 -1.39664 7387 ft 272 kts 98°
2026-05-07 18:24 47.14381 -1.36851 8319 ft 277 kts 98°
2026-05-07 18:24 47.14289 -1.33993 9180 ft 285 kts 85°
2026-05-07 18:25 47.14795 -1.31144 10006 ft 294 kts 67°
2026-05-07 18:25 47.15890 -1.28582 10759 ft 303 kts 50°
2026-05-07 18:25 47.17500 -1.26429 11155 ft 324 kts 38°
2026-05-07 18:25 47.19352 -1.24333 11462 ft 347 kts 37°
2026-05-07 18:26 47.21318 -1.22146 12034 ft 358 kts 37°
2026-05-07 18:26 47.23322 -1.19917 12792 ft 364 kts 37°
2026-05-07 18:26 47.25348 -1.17648 13559 ft 369 kts 37°
2026-05-07 18:26 47.27400 -1.15331 14269 ft 374 kts 37°
2026-05-07 18:27 47.29474 -1.12978 14964 ft 378 kts 38°
2026-05-07 18:27 47.31564 -1.10597 15660 ft 382 kts 38°
2026-05-07 18:27 47.33672 -1.08187 16346 ft 386 kts 38°
2026-05-07 18:27 47.35802 -1.05744 17017 ft 390 kts 38°
2026-05-07 18:28 47.37954 -1.03274 17682 ft 394 kts 38°
2026-05-07 18:28 47.40127 -1.00773 18322 ft 398 kts 38°
2026-05-07 18:28 47.42324 -0.98251 18887 ft 402 kts 38°
2026-05-07 18:28 47.44550 -0.95702 19449 ft 406 kts 38°
2026-05-07 18:29 47.46789 -0.93138 20018 ft 409 kts 38°
2026-05-07 18:29 47.49048 -0.90541 20577 ft 413 kts 38°
2026-05-07 18:29 47.51323 -0.87921 21148 ft 416 kts 38°
2026-05-07 18:29 47.53611 -0.85283 21699 ft 419 kts 38°
2026-05-07 18:30 47.55928 -0.82631 22241 ft 422 kts 38°
2026-05-07 18:30 47.58273 -0.79987 22775 ft 426 kts 37°
2026-05-07 18:30 47.60644 -0.77337 23294 ft 429 kts 37°
2026-05-07 18:30 47.63036 -0.74672 23769 ft 432 kts 37°
2026-05-07 18:31 47.65446 -0.71984 24196 ft 435 kts 37°
2026-05-07 18:31 47.67864 -0.69273 24632 ft 437 kts 37°
2026-05-07 18:31 47.70297 -0.66530 25047 ft 440 kts 38°
2026-05-07 18:31 47.72733 -0.63768 25468 ft 442 kts 38°
2026-05-07 18:32 47.75186 -0.60983 25877 ft 445 kts 38°
2026-05-07 18:32 47.77652 -0.58181 26284 ft 448 kts 38°
2026-05-07 18:32 47.80136 -0.55360 26684 ft 450 kts 38°
2026-05-07 18:32 47.82631 -0.52522 27082 ft 453 kts 38°
2026-05-07 18:33 47.85137 -0.49668 27478 ft 455 kts 38°
2026-05-07 18:33 47.87662 -0.46796 27862 ft 458 kts 37°
2026-05-07 18:33 47.90208 -0.43900 28245 ft 461 kts 37°
2026-05-07 18:33 47.92762 -0.40992 28604 ft 463 kts 37°
2026-05-07 18:34 47.95324 -0.38065 28959 ft 466 kts 37°
2026-05-07 18:34 47.97897 -0.35119 29315 ft 468 kts 37°
2026-05-07 18:34 48.00488 -0.32146 29661 ft 470 kts 37°
2026-05-07 18:34 48.03073 -0.29138 29994 ft 473 kts 40°
2026-05-07 18:35 48.05440 -0.25721 30275 ft 474 kts 49°
2026-05-07 18:35 48.07456 -0.21806 30539 ft 476 kts 57°
2026-05-07 18:35 48.09071 -0.17494 30870 ft 476 kts 66°
2026-05-07 18:35 48.10477 -0.13011 31242 ft 475 kts 66°
2026-05-07 18:36 48.11883 -0.08532 31600 ft 475 kts 66°
2026-05-07 18:36 48.13283 -0.04054 31955 ft 476 kts 66°
2026-05-07 18:36 48.14687 0.00435 32310 ft 476 kts 66°
2026-05-07 18:36 48.16091 0.04919 32671 ft 476 kts 66°
2026-05-07 18:37 48.17493 0.09407 33022 ft 476 kts 66°
2026-05-07 18:37 48.18894 0.13903 33381 ft 476 kts 66°
2026-05-07 18:37 48.20294 0.18401 33746 ft 476 kts 66°
2026-05-07 18:37 48.21694 0.22907 33971 ft 477 kts 66°
2026-05-07 18:38 48.23086 0.27407 34005 ft 474 kts 66°
2026-05-07 18:38 48.25845 0.36372 34003 ft 473 kts 66°
2026-05-07 18:39 48.28595 0.45329 34007 ft 473 kts 66°
2026-05-07 18:39 48.31350 0.54295 34008 ft 472 kts 66°
2026-05-07 18:40 48.34089 0.63258 34010 ft 472 kts 66°
2026-05-07 18:40 48.36811 0.72229 34006 ft 472 kts 66°
2026-05-07 18:41 48.39531 0.81197 34009 ft 471 kts 66°
2026-05-07 18:41 48.42250 0.90177 34012 ft 471 kts 66°
2026-05-07 18:42 48.44954 0.99157 34012 ft 471 kts 66°
2026-05-07 18:42 48.47653 1.08153 34012 ft 471 kts 66°
2026-05-07 18:43 48.50331 1.17156 34024 ft 471 kts 66°
2026-05-07 18:43 48.53010 1.26172 34022 ft 471 kts 66°
2026-05-07 18:44 48.55683 1.35174 34026 ft 470 kts 66°
2026-05-07 18:44 48.58344 1.44187 34024 ft 469 kts 66°
2026-05-07 18:45 48.61014 1.53243 34026 ft 469 kts 66°
2026-05-07 18:45 48.63651 1.62251 34023 ft 468 kts 66°
2026-05-07 18:46 48.66131 1.71276 34024 ft 467 kts 70°
2026-05-07 18:46 48.68342 1.80585 34020 ft 467 kts 71°
2026-05-07 18:47 48.70484 1.89874 34017 ft 467 kts 71°
2026-05-07 18:47 48.72645 1.98978 34017 ft 467 kts 70°
2026-05-07 18:48 48.74923 2.08379 34016 ft 468 kts 70°
2026-05-07 18:48 48.76929 2.17750 34018 ft 467 kts 75°
2026-05-07 18:49 48.78579 2.27350 34020 ft 467 kts 77°
2026-05-07 18:49 48.80179 2.36962 34023 ft 467 kts 76°
2026-05-07 18:50 48.81569 2.44884 34016 ft 468 kts 75°
2026-05-07 18:50 48.83282 2.54403 34046 ft 468 kts 75°
2026-05-07 18:51 48.84990 2.63939 34039 ft 468 kts 75°
2026-05-07 18:51 48.86666 2.73477 34048 ft 468 kts 75°
2026-05-07 18:52 48.88334 2.83037 34047 ft 468 kts 75°
2026-05-07 18:52 48.89998 2.92592 34053 ft 468 kts 76°
2026-05-07 18:53 48.91653 3.02147 34053 ft 468 kts 75°
2026-05-07 18:53 48.93295 3.11722 34060 ft 468 kts 76°
2026-05-07 18:54 48.94933 3.21293 34062 ft 467 kts 76°
2026-05-07 18:54 48.96567 3.30858 34064 ft 467 kts 76°
2026-05-07 18:55 48.98188 3.40433 34067 ft 467 kts 76°
2026-05-07 18:55 48.99796 3.50018 34064 ft 467 kts 76°
2026-05-07 18:56 49.01398 3.59600 34066 ft 467 kts 76°
2026-05-07 18:56 49.02994 3.69181 34062 ft 467 kts 76°
2026-05-07 18:57 49.04574 3.78770 34053 ft 467 kts 76°
2026-05-07 18:57 49.06158 3.88425 34050 ft 467 kts 76°
2026-05-07 18:58 49.07736 3.98035 34053 ft 467 kts 76°
2026-05-07 18:58 49.09302 4.07646 34048 ft 467 kts 76°
2026-05-07 18:59 49.10861 4.17268 34050 ft 467 kts 76°
2026-05-07 18:59 49.12408 4.26888 34049 ft 467 kts 76°
2026-05-07 19:00 49.14026 4.36479 34052 ft 466 kts 71°
2026-05-07 19:00 49.16465 4.45641 34049 ft 466 kts 67°
2026-05-07 19:01 49.18951 4.54783 34042 ft 466 kts 67°
2026-05-07 19:01 49.21419 4.63934 34050 ft 465 kts 67°
2026-05-07 19:02 49.23876 4.73088 34055 ft 465 kts 67°
2026-05-07 19:02 49.26324 4.82252 34053 ft 465 kts 67°
2026-05-07 19:02 49.27551 4.86848 33843 ft 466 kts 67°
2026-05-07 19:03 49.28778 4.91438 33563 ft 467 kts 67°
2026-05-07 19:03 49.30016 4.96076 33284 ft 471 kts 67°
2026-05-07 19:03 49.31251 5.00718 33012 ft 473 kts 67°
2026-05-07 19:03 49.32506 5.05457 32736 ft 473 kts 67°
2026-05-07 19:04 49.33743 5.10138 32471 ft 474 kts 67°
2026-05-07 19:04 49.34978 5.14816 32208 ft 474 kts 67°
2026-05-07 19:04 49.36212 5.19505 32023 ft 473 kts 68°
2026-05-07 19:05 49.38670 5.28893 32064 ft 474 kts 68°
2026-05-07 19:05 49.41132 5.38304 32068 ft 474 kts 68°
2026-05-07 19:06 49.43575 5.47692 32065 ft 475 kts 68°
2026-05-07 19:06 49.47221 5.61836 32064 ft 474 kts 68°
2026-05-07 19:07 49.48492 5.66518 31882 ft 474 kts 65°
2026-05-07 19:07 49.49885 5.71101 31594 ft 473 kts 63°
2026-05-07 19:07 49.51373 5.75625 31245 ft 473 kts 62°
2026-05-07 19:07 49.52899 5.80112 30863 ft 474 kts 61°
2026-05-07 19:08 49.54428 5.84610 30494 ft 474 kts 62°
2026-05-07 19:08 49.55933 5.89125 30124 ft 474 kts 62°
2026-05-07 19:08 49.57430 5.93735 29691 ft 475 kts 63°
2026-05-07 19:08 49.58866 5.98244 29265 ft 476 kts 63°
2026-05-07 19:09 49.60310 6.02834 28811 ft 477 kts 63°
2026-05-07 19:09 49.61752 6.07440 28276 ft 476 kts 63°
2026-05-07 19:09 49.63189 6.12021 27775 ft 474 kts 63°
2026-05-07 19:09 49.64623 6.16574 27266 ft 470 kts 63°
2026-05-07 19:10 49.66074 6.21165 26763 ft 467 kts 63°
2026-05-07 19:10 49.67493 6.25653 26282 ft 464 kts 63°
2026-05-07 19:10 49.68901 6.30120 25795 ft 461 kts 63°
2026-05-07 19:10 49.70293 6.34557 25329 ft 458 kts 64°
2026-05-07 19:11 49.71676 6.38969 25045 ft 456 kts 64°
2026-05-07 19:11 49.73052 6.43360 25044 ft 455 kts 64°
2026-05-07 19:11 49.74433 6.47774 25055 ft 456 kts 64°
2026-05-07 19:11 49.75810 6.52188 25070 ft 456 kts 64°
2026-05-07 19:12 49.77185 6.56608 25066 ft 456 kts 64°
2026-05-07 19:12 49.78558 6.61036 24718 ft 455 kts 64°
2026-05-07 19:12 49.79918 6.65428 24242 ft 451 kts 64°
2026-05-07 19:12 49.81273 6.69801 23760 ft 448 kts 64°
2026-05-07 19:13 49.82617 6.74145 23228 ft 446 kts 64°
2026-05-07 19:13 49.83945 6.78453 22686 ft 442 kts 64°
2026-05-07 19:13 49.85265 6.82737 22230 ft 438 kts 64°
2026-05-07 19:13 49.86591 6.87050 21782 ft 436 kts 64°
2026-05-07 19:14 49.87885 6.91272 21256 ft 432 kts 64°
2026-05-07 19:14 49.89170 6.95471 20744 ft 428 kts 64°
2026-05-07 19:14 49.90441 6.99626 20266 ft 425 kts 64°
2026-05-07 19:14 49.91700 7.03750 19770 ft 421 kts 64°
2026-05-07 19:15 49.92947 7.07846 19281 ft 418 kts 64°
2026-05-07 19:15 49.94188 7.11931 18803 ft 415 kts 64°
2026-05-07 19:15 49.95406 7.15947 18321 ft 411 kts 64°
2026-05-07 19:15 49.96617 7.19938 17780 ft 408 kts 64°
2026-05-07 19:16 49.97821 7.23918 17241 ft 405 kts 64°
2026-05-07 19:16 49.99012 7.27857 16715 ft 402 kts 64°
2026-05-07 19:16 50.00144 7.31611 16200 ft 398 kts 64°
2026-05-07 19:16 50.01314 7.35500 15712 ft 395 kts 64°
2026-05-07 19:17 50.02476 7.39366 15207 ft 393 kts 64°
2026-05-07 19:17 50.03624 7.43190 14712 ft 390 kts 64°
2026-05-07 19:17 50.04780 7.47053 14219 ft 387 kts 64°
2026-05-07 19:17 50.05898 7.50782 13710 ft 384 kts 65°
2026-05-07 19:18 50.07036 7.54590 13144 ft 381 kts 65°
2026-05-07 19:18 50.08131 7.58264 12600 ft 378 kts 65°
2026-05-07 19:18 50.09232 7.61967 12057 ft 375 kts 65°
2026-05-07 19:18 50.10095 7.65773 11517 ft 372 kts 77°
2026-05-07 19:19 50.10381 7.69744 11012 ft 368 kts 90°
2026-05-07 19:19 50.10095 7.73675 10510 ft 364 kts 103°
2026-05-07 19:19 50.09386 7.77441 10055 ft 362 kts 107°
2026-05-07 19:19 50.08682 7.81199 9660 ft 361 kts 102°
2026-05-07 19:20 50.08406 7.85064 9262 ft 359 kts 89°
2026-05-07 19:20 50.08681 7.88904 8876 ft 356 kts 77°
2026-05-07 19:20 50.09448 7.92544 8516 ft 353 kts 68°
2026-05-07 19:20 50.10341 7.96147 8101 ft 351 kts 68°
2026-05-07 19:21 50.11207 7.99683 7692 ft 348 kts 69°
2026-05-07 19:21 50.12051 8.03151 7295 ft 346 kts 69°
2026-05-07 19:21 50.12830 8.06355 7073 ft 345 kts 69°
2026-05-07 19:21 50.13675 8.09837 6820 ft 344 kts 69°
2026-05-07 19:22 50.14517 8.13321 6426 ft 340 kts 69°
2026-05-07 19:22 50.15062 8.15578 6146 ft 333 kts 69°
2026-05-07 19:22 50.15865 8.18895 5878 ft 320 kts 69°
2026-05-07 19:22 50.16641 8.22087 5675 ft 298 kts 68°
2026-05-07 19:23 50.17271 8.24975 5509 ft 273 kts 79°
2026-05-07 19:23 50.17179 8.27801 5357 ft 252 kts 109°
2026-05-07 19:23 50.16243 8.30019 5210 ft 242 kts 141°
2026-05-07 19:23 50.14749 8.31101 5079 ft 239 kts 173°
2026-05-07 19:24 50.13131 8.30784 4990 ft 236 kts 206°
2026-05-07 19:24 50.11889 8.29169 4995 ft 234 kts 239°
2026-05-07 19:24 50.11223 8.26860 4996 ft 234 kts 252°
2026-05-07 19:24 50.10708 8.24457 5000 ft 234 kts 253°
2026-05-07 19:25 50.10211 8.22035 4997 ft 234 kts 253°
2026-05-07 19:25 50.09720 8.19614 4997 ft 235 kts 253°
2026-05-07 19:25 50.09230 8.17192 4995 ft 234 kts 253°
2026-05-07 19:25 50.08742 8.14773 5001 ft 235 kts 253°
2026-05-07 19:26 50.08252 8.12351 4998 ft 234 kts 253°
2026-05-07 19:26 50.07763 8.09932 4999 ft 235 kts 253°
2026-05-07 19:26 50.07274 8.07508 4997 ft 235 kts 253°
2026-05-07 19:26 50.06785 8.05078 5000 ft 235 kts 253°
2026-05-07 19:27 50.06299 8.02656 5003 ft 235 kts 253°
2026-05-07 19:27 50.05813 8.00228 5001 ft 235 kts 254°
2026-05-07 19:27 50.05325 7.97802 4998 ft 235 kts 253°
2026-05-07 19:27 50.04833 7.95368 5001 ft 235 kts 252°
2026-05-07 19:28 50.04184 7.93032 5001 ft 236 kts 245°
2026-05-07 19:28 50.03438 7.90768 4998 ft 236 kts 240°
2026-05-07 19:28 50.02280 7.88941 4995 ft 237 kts 208°
2026-05-07 19:28 50.00691 7.88362 4999 ft 238 kts 176°
2026-05-07 19:29 49.99064 7.88844 5002 ft 239 kts 165°
2026-05-07 19:29 49.97484 7.89523 5002 ft 239 kts 164°
2026-05-07 19:29 49.95889 7.90241 5001 ft 239 kts 161°
2026-05-07 19:29 49.94486 7.91555 5000 ft 238 kts 131°
2026-05-07 19:30 49.93694 7.93813 4998 ft 237 kts 107°
2026-05-07 19:30 49.93229 7.96259 5001 ft 237 kts 104°
2026-05-07 19:30 49.92802 7.98737 4998 ft 237 kts 104°
2026-05-07 19:30 49.92416 8.01220 4997 ft 237 kts 95°
2026-05-07 19:31 49.92562 8.03735 5000 ft 235 kts 70°
2026-05-07 19:31 49.93131 8.06110 4993 ft 235 kts 68°
2026-05-07 19:31 49.93717 8.08470 4998 ft 235 kts 68°
2026-05-07 19:31 49.94297 8.10834 5000 ft 230 kts 68°
2026-05-07 19:32 49.94842 8.13071 4995 ft 214 kts 68°
2026-05-07 19:32 49.95353 8.15169 4994 ft 202 kts 68°
2026-05-07 19:32 49.95839 8.17163 4952 ft 195 kts 68°
2026-05-07 19:32 49.96319 8.19131 4728 ft 195 kts 68°
2026-05-07 19:33 49.96796 8.21095 4464 ft 192 kts 68°
2026-05-07 19:33 49.97254 8.22982 4208 ft 183 kts 68°
2026-05-07 19:33 49.97695 8.24797 3932 ft 175 kts 68°
2026-05-07 19:33 49.98116 8.26534 3690 ft 169 kts 68°
2026-05-07 19:34 49.98529 8.28236 3453 ft 168 kts 68°
2026-05-07 19:34 49.98940 8.29933 3209 ft 167 kts 68°
2026-05-07 19:34 49.99348 8.31618 2965 ft 166 kts 68°
2026-05-07 19:34 49.99753 8.33294 2727 ft 165 kts 68°
2026-05-07 19:35 50.00153 8.34948 2478 ft 163 kts 68°
2026-05-07 19:35 50.00548 8.36586 2248 ft 161 kts 69°
2026-05-07 19:35 50.00942 8.38217 2018 ft 159 kts 69°
2026-05-07 19:35 50.01319 8.39782 1804 ft 150 kts 69°
2026-05-07 19:36 50.01676 8.41264 1573 ft 143 kts 69°
2026-05-07 19:36 50.02019 8.42702 1353 ft 140 kts 69°
2026-05-07 19:36 50.02361 8.44107 1152 ft 138 kts 69°
2026-05-07 19:36 50.02700 8.45502 952 ft 137 kts 69°
2026-05-07 19:37 50.03031 8.46893 758 ft 137 kts 69°
2026-05-07 19:37 50.03357 8.48262 568 ft 135 kts 69°
2026-05-07 19:37 50.03686 8.49629 392 ft 134 kts 69°
2026-05-07 19:37 50.04000 8.50941 324 ft 115 kts 70°
2026-05-07 19:38 50.04216 8.51839 335 ft 62 kts 70°
2026-05-07 19:38 50.04327 8.52300 350 ft 39 kts 69°
2026-05-07 19:38 50.04396 8.52661 354 ft 32 kts 86°
2026-05-07 19:38 50.04375 8.52981 355 ft 26 kts 100°
2026-05-07 19:39 50.04348 8.53251 363 ft 23 kts 91°
2026-05-07 19:39 50.04387 8.53468 374 ft 19 kts 72°
2026-05-07 19:39 50.04406 8.53678 375 ft 21 kts 82°
2026-05-07 19:39 50.04422 8.53912 375 ft 23 kts 84°
2026-05-07 19:40 50.04439 8.54167 375 ft 25 kts 83°
2026-05-07 19:40 50.04454 8.54450 370 ft 27 kts 96°
2026-05-07 19:40 50.04374 8.54708 361 ft 29 kts 137°
2026-05-07 19:40 50.04200 8.54834 355 ft 28 kts 160°
2026-05-07 19:41 50.04051 8.54919 354 ft 14 kts 160°
2026-05-07 19:41 50.04023 8.55033 353 ft 16 kts 73°
2026-05-07 19:41 50.04071 8.55237 357 ft 22 kts 69°
2026-05-07 19:41 50.04127 8.55471 358 ft 25 kts 70°
2026-05-07 19:42 50.04188 8.55728 356 ft 26 kts 69°
2026-05-07 19:42 50.04247 8.55972 360 ft 17 kts 69°
2026-05-07 19:42 50.04309 8.56072 359 ft 14 kts 354°
2026-05-07 19:42 50.04397 8.56025 360 ft 11 kts 344°
2026-05-07 19:43 50.04448 8.56099 363 ft 12 kts 69°
2026-05-07 19:43 50.04481 8.56238 358 ft 15 kts 70°
2026-05-07 19:43 50.04516 8.56381 362 ft 13 kts 69°
2026-05-07 19:43 50.04580 8.56462 360 ft 12 kts 24°
2026-05-07 19:44 50.04612 8.56506 362 ft 5 kts 86°
2026-05-07 19:44 50.04599 8.56560 362 ft 7 kts 115°
2026-05-07 19:44 50.04583 8.56612 362 ft 2 kts 115°
2026-05-07 19:44 50.04581 8.56620 361 ft 0 kts 115°